This is the latest recevied weather packets stored in our database for station/object K5SVV. If no packets are shown the sender has not sent any weather packets the latest 10 day(s).
| Time | Temp. | Humidity | Pressure | Rain* | Wind** | Luminosity | Snow |
|---|---|---|---|---|---|---|---|
| 1787949138 | 38.89° C | 34% | 1015.6 hPa | 0 mm | - | 645 W/m² | - |
| 1787948834 | 38.33° C | 35% | 1015.6 hPa | 0 mm | - | 657 W/m² | - |
| 1787948534 | 37.78° C | 35% | 1015.5 hPa | 0 mm | - | 680 W/m² | - |
| 1787948224 | 38.33° C | 36% | 1015.4 hPa | 0 mm | - | 680 W/m² | - |
| 1787947922 | 38.33° C | 36% | 1015.6 hPa | 0 mm | - | 692 W/m² | - |
| 1787947617 | 37.78° C | 35% | 1015.9 hPa | 0 mm | - | 686 W/m² | - |
| 1787947316 | 38.89° C | 34% | 1015.8 hPa | 0 mm | - | 226 W/m² | - |
| 1787947010 | 38.89° C | 36% | 1015.9 hPa | 0 mm | - | 723 W/m² | - |
| 1787946709 | 37.78° C | 37% | 1015.8 hPa | 0 mm | - | 712 W/m² | - |
| 1787946408 | 37.78° C | 39% | 1016.1 hPa | 0 mm | - | 686 W/m² | - |
| 1787946103 | 38.33° C | 36% | 1016.2 hPa | 0 mm | - | 687 W/m² | - |
| 1787945798 | 38.33° C | 36% | 1016 hPa | 0 mm | - | 722 W/m² | - |
| 1787945493 | 38.33° C | 36% | 1016.1 hPa | 0 mm | - | 741 W/m² | - |
| 1787945188 | 38.33° C | 38% | 1016.1 hPa | 0 mm | - | 793 W/m² | - |
| 1787944886 | 37.78° C | 37% | 1016.2 hPa | 0 mm | - | 783 W/m² | - |
| 1787944580 | 37.22° C | 39% | 1016.2 hPa | 0 mm | - | 310 W/m² | - |
| 1787944275 | 37.78° C | 40% | 1016.3 hPa | 0 mm | - | 760 W/m² | - |
| 1787943971 | 38.33° C | 39% | 1016.3 hPa | 0 mm | - | 769 W/m² | - |
| 1787943666 | 38.33° C | 39% | 1016.5 hPa | 0 mm | - | 735 W/m² | - |
| 1787943365 | 37.22° C | 38% | 1016.6 hPa | 0 mm | - | 703 W/m² | - |
| 1787943060 | 37.22° C | 38% | 1016.7 hPa | 0 mm | - | 198 W/m² | - |
| 1787942755 | 37.78° C | 39% | 1016.8 hPa | 0 mm | - | 764 W/m² | - |
| 1787942451 | 37.78° C | 38% | 1016.9 hPa | 0 mm | - | 749 W/m² | - |
| 1787942149 | 37.78° C | 37% | 1016.9 hPa | 0 mm | - | 738 W/m² | - |
| 1787941846 | 38.33° C | 38% | 1017 hPa | 0 mm | - | 742 W/m² | - |
* Rain latest hour (hover to see other rain measurements)
** Current wind speed in m/s (hover to see current wind gust speed)